This is the latest recevied weather packets stored in our database for station/object F4ELU-13. If no packets are shown the sender has not sent any weather packets the latest 10 day(s).
| Time | Temp. | Humidity | Pressure | Rain* | Wind** | Luminosity | Snow |
|---|---|---|---|---|---|---|---|
| 1777669203 | 16.67° C | 83% | 1020.7 hPa | 0 mm | - | - | - |
| 1777668843 | 16.67° C | 83% | 1020.8 hPa | 0 mm | - | - | - |
| 1777668303 | 17.22° C | 82% | 1020.7 hPa | 0 mm | - | - | - |
| 1777667763 | 17.22° C | 82% | 1020.7 hPa | 0 mm | - | - | - |
| 1777667223 | 17.78° C | 82% | 1020.8 hPa | 0 mm | - | - | - |
| 1777666683 | 17.78° C | 81% | 1020.8 hPa | 0 mm | - | - | - |
| 1777666144 | 17.22° C | 82% | 1020.7 hPa | 0 mm | - | - | - |
| 1777665603 | 17.78° C | 83% | 1020.6 hPa | 0 mm | - | - | - |
| 1777665243 | 17.78° C | 82% | 1020.5 hPa | 0 mm | - | - | - |
| 1777664708 | 18.33° C | 82% | 1020.4 hPa | 0 mm | - | - | - |
| 1777664164 | 18.33° C | 81% | 1020.3 hPa | 0 mm | - | - | - |
| 1777663623 | 18.89° C | 80% | 1020.3 hPa | 0 mm | - | - | - |
| 1777663083 | 18.89° C | 80% | 1020.2 hPa | 0 mm | - | - | - |
| 1777662543 | 19.44° C | 79% | 1020 hPa | 0 mm | - | - | - |
| 1777662003 | 19.44° C | 78% | 1020.1 hPa | 0 mm | - | - | - |
| 1777661643 | 19.44° C | 78% | 1020.1 hPa | 0 mm | - | - | - |
| 1777661103 | 20° C | 76% | 1019.9 hPa | 0 mm | - | - | - |
| 1777660563 | 20.56° C | 75% | 1019.9 hPa | 0 mm | - | - | - |
| 1777660023 | 20.56° C | 74% | 1019.8 hPa | 0 mm | - | - | - |
| 1777659483 | 21.11° C | 72% | 1019.7 hPa | 0 mm | - | - | - |
| 1777658943 | 21.11° C | 72% | 1019.6 hPa | 0 mm | - | - | - |
| 1777658403 | 21.67° C | 71% | 1019.8 hPa | 0 mm | - | - | - |
| 1777658043 | 21.67° C | 72% | 1019.7 hPa | 0 mm | - | - | - |
| 1777657504 | 22.22° C | 71% | 1019.6 hPa | 0 mm | - | - | - |
| 1777656963 | 22.22° C | 71% | 1019.6 hPa | 0 mm | - | - | - |
* Rain latest hour (hover to see other rain measurements)
** Current wind speed in m/s (hover to see current wind gust speed)